Weather History for KGUS - December, 2011

Change the Weather History Date:

Monday, December 19, 2011

  Actual Average Record
Temperature  
Mean Temperature 44 °F -  
Max Temperature 50 °F 31 °F 53 °F (1997)
Min Temperature 38 °F 21 °F 0 °F (1996)
Degree Days  
Heating Degree Days 21    
Moisture  
Dew Point 45 °F    
Average Humidity 100    
Maximum Humidity 100    
Minimum Humidity 99    
Precipitation  
Precipitation 0.00 in - - ()
Sea Level Pressure  
Sea Level Pressure 30.04 in    
Wind  
Wind Speed 14 mph (WSW)    
Max Wind Speed 22 mph    
Max Gust Speed 25 mph    
Visibility 10 miles    
Events Rain    
Averages and records for this station are not official NWS values.
T = Trace of Precipitation, MM = Missing Value Source: NWS Daily Summary

Daily Weather History Graph

Daily Weather History Graph

Search for Another Location

Airport or City:

Trip Planner

Search our weather history database for the weather conditions in past years. The results will help you decide how hot, cold, wet, or windy it might be!

Date:

Astronomy

Dec. 19, 2011 Rise Set
Actual Time 8:03 AM EST 5:19 PM EST
Civil Twilight 7:32 AM EST 5:50 PM EST
Nautical Twilight 6:58 AM EST 6:24 PM EST
Astronomical Twilight 6:24 AM EST 6:58 PM EST
Moon 2:12 AM EST (12/19) 1:18 PM EST (12/19)
Length of Visible Light 10h 17m
Length of Day
9h 15m
Waning Crescent, 31% of the Moon is Illuminated
Dec 19
Waning Crescent
Dec 24
New
Jan 1
First Quarter
Jan 9
Full
Jan 16
Last Quarter

Hourly Weather History & Observations

Time (EST) Temp. Windchill Dew Point Humidity Pressure Visibility Wind Dir Wind Speed Gust Speed Precip Events Conditions
12:55 AM 38.7 °F 30.5 °F 38.7 °F 100% 30.02 in 10.0 mi SSW 13.8 mph - N/A   Clear
1:55 AM 40.5 °F 32.8 °F 40.3 °F 99% 30.00 in 10.0 mi SSW 13.8 mph - N/A   Overcast
2:55 AM 41.7 °F 34.1 °F 41.5 °F 99% 29.99 in 10.0 mi SSW 15.0 mph - N/A   Overcast
3:55 AM 42.1 °F 33.9 °F 41.7 °F 99% 29.98 in 10.0 mi SW 17.3 mph - N/A   Overcast
4:55 AM 43.3 °F 34.5 °F 43.2 °F 99% 29.96 in 10.0 mi SW 21.9 mph - N/A   Overcast
5:55 AM 43.5 °F 35.8 °F 43.2 °F 99% 29.97 in 10.0 mi SSW 17.3 mph - N/A   Overcast
6:55 AM 43.7 °F 36.0 °F 43.5 °F 99% 29.98 in 10.0 mi SW 17.3 mph - N/A   Overcast
7:55 AM 44.8 °F 37.7 °F 44.6 °F 99% 29.98 in 10.0 mi SW 16.1 mph - N/A   Overcast
8:55 AM 44.8 °F 36.9 °F 44.8 °F 100% 29.99 in 10.0 mi SW 19.6 mph - N/A   Overcast
9:55 AM 45.3 °F 37.8 °F 45.3 °F 100% 30.01 in 10.0 mi SW 18.4 mph - N/A   Overcast
10:30 AM 46.4 °F 39.0 °F 46.4 °F 100% 29.99 in 10.0 mi SW 19.6 mph 25.3 mph N/A   Overcast
10:55 AM 46.0 °F 39.3 °F 46.0 °F 100% 30.02 in 10.0 mi SW 16.1 mph - N/A   Overcast
11:55 AM 47.5 °F - 47.5 °F 100% 30.01 in 10.0 mi SW 16.1 mph - N/A   Overcast
12:55 PM 48.2 °F - 48.0 °F 99% 29.99 in 10.0 mi SW 16.1 mph - N/A   Overcast
1:55 PM 50.2 °F - 49.8 °F 99% 29.99 in 10.0 mi WSW 17.3 mph - N/A   Overcast
2:55 PM 50.4 °F - 50.2 °F 99% 29.99 in 10.0 mi WSW 13.8 mph - N/A   Scattered Clouds
3:55 PM 49.6 °F - 49.5 °F 99% 30.00 in 10.0 mi WSW 13.8 mph - N/A   Mostly Cloudy
4:55 PM 49.1 °F - 49.1 °F 100% 30.03 in 10.0 mi WSW 10.4 mph - N/A   Overcast
5:47 PM 48.2 °F - 48.2 °F 100% 30.04 in 10.0 mi WSW 9.2 mph - N/A   Overcast
5:55 PM 47.5 °F - 47.5 °F 100% 30.05 in 10.0 mi WSW 10.4 mph - N/A   Overcast
6:55 PM 47.1 °F - 47.1 °F 100% 30.06 in 10.0 mi WSW 9.2 mph - N/A   Overcast
7:55 PM 46.0 °F 41.4 °F 46.0 °F 100% 30.07 in 10.0 mi WSW 9.2 mph - N/A   Overcast
8:00 PM 46.4 °F 41.9 °F 46.4 °F 100% 30.07 in 10.0 mi WSW 9.2 mph - N/A   Overcast
8:04 PM 46.4 °F 42.9 °F 46.4 °F 100% 30.07 in 10.0 mi West 6.9 mph - N/A   Overcast
8:16 PM 46.4 °F 41.5 °F 46.4 °F 100% 30.09 in 10.0 mi North 10.4 mph - N/A   Overcast
8:27 PM 44.6 °F 38.8 °F 44.6 °F 100% 30.09 in 10.0 mi North 11.5 mph - N/A   Overcast
8:55 PM 43.5 °F 39.4 °F 43.5 °F 100% 30.12 in 10.0 mi North 6.9 mph - N/A   Overcast
9:55 PM 42.4 °F 37.0 °F 42.4 °F 100% 30.12 in 10.0 mi North 9.2 mph - N/A   Overcast
10:55 PM 41.5 °F 36.4 °F 41.5 °F 100% 30.12 in 10.0 mi NNE 8.1 mph - N/A   Overcast
11:05 PM 41.0 °F 35.8 °F 41.0 °F 100% 30.12 in 10.0 mi NNE 8.1 mph - N/A   Overcast
11:31 PM 41.0 °F 34.7 °F 41.0 °F 100% 30.13 in 10.0 mi North 10.4 mph - N/A   Overcast
11:47 PM 41.0 °F 35.8 °F 41.0 °F 100% 30.14 in 10.0 mi North 8.1 mph - N/A Rain Light Rain
11:55 PM 40.8 °F 35.0 °F 40.6 °F 99% 30.16 in 10.0 mi North 9.2 mph - 0.00 in Rain Light Rain